Weather History for De Queen, AR

Change the Weather History Date:

Friday, November 8, 2013

  Actual Average Record
Temperature  
Mean Temperature 52 °F 56 °F  
Max Temperature 66 °F 69 °F 84 °F (1989)
Min Temperature 38 °F 42 °F 21 °F (1993)
Degree Days  
Heating Degree Days 13 10  
Month to date heating degree days 96 69  
Since 1 July heating degree days 240 202  
Cooling Degree Days 0 0  
Month to date cooling degree days 0 5  
Year to date cooling degree days 2023 1939  
Moisture  
Dew Point 40 °F    
Average Humidity 70    
Maximum Humidity 100    
Minimum Humidity 40    
Precipitation  
Precipitation T in 0.17 in 1.58 in (1944)
Month to date precipitation 2.22 1.35  
Year to date precipitation 31.13 41.07  
Snow  
Snow 0.00 in - - ()
Month to date snowfall 0.0  
Since 1 July snowfall 0.0  
Since 1 September snowfall 0.0  
Snow Depth 0.00 in    
Sea Level Pressure  
Sea Level Pressure 30.32 in    
Wind  
Wind Speed 3 mph (South)    
Max Wind Speed 12 mph    
Max Gust Speed 15 mph    
Visibility 5 miles    
Events Fog , Snow    
T = Trace of Precipitation, MM = Missing Value Source: NWS Daily Summary

Daily Weather History Graph

Daily Weather History Graph

Search for Another Location

Airport:

Trip Planner

Search our weather history database for the weather conditions in past years. The results will help you decide how hot, cold, wet, or windy it might be!

Date:

Astronomy

Nov. 08, 2013 Rise Set
Actual Time 6:43 AM CST 5:18 PM CST
Civil Twilight 6:17 AM CST 5:44 PM CST
Nautical Twilight 5:47 AM CST 6:14 PM CST
Astronomical Twilight 5:18 AM CST 6:44 PM CST
Moon 11:40 AM CST (11/8) 10:39 PM CST (11/8)
Length of Visible Light 11h 27m
Length of Day
10h 34m
Waxing Crescent, 33% of the Moon is Illuminated
Nov 8
Waxing Crescent
Nov 9
First Quarter
Nov 17
Full
Nov 25
Last Quarter
Dec 2
New

Hourly Weather History & Observations

Time (CST) Temp. Windchill Dew Point Humidity Pressure Visibility Wind Dir Wind Speed Gust Speed Precip Events Conditions
12:53 AM 39.0 °F 36.8 °F 39.0 °F 100% 30.36 in 0.2 mi WSW 3.5 mph - 0.00 in Fog Fog
1:19 AM 41.0 °F - 41.0 °F 100% 30.36 in 1.2 mi Calm Calm - N/A   Mostly Cloudy
1:22 AM 39.9 °F - 39.9 °F 100% 30.36 in 3.0 mi Calm Calm - N/A   Mostly Cloudy
1:27 AM 39.9 °F - 39.9 °F 100% 30.36 in 2.0 mi Calm Calm - N/A   Scattered Clouds
1:30 AM 39.0 °F - 39.0 °F 100% 30.36 in 1.0 mi Calm Calm - N/A   Mist
1:37 AM 39.0 °F - 37.9 °F 96% 30.36 in 0.5 mi Calm Calm - N/A Fog Fog
1:43 AM 39.0 °F 36.8 °F 37.9 °F 96% 30.35 in 1.0 mi East 3.5 mph - N/A   Clear
1:53 AM 39.0 °F - 39.0 °F 100% 30.35 in 2.0 mi Calm Calm - N/A   Clear
1:56 AM 39.0 °F - 39.0 °F 100% 30.36 in 3.0 mi Calm Calm - N/A   Partly Cloudy
1:58 AM 39.0 °F - 39.0 °F 100% 30.36 in 1.2 mi Calm Calm - N/A   Partly Cloudy
2:02 AM 39.0 °F - 39.0 °F 100% 30.35 in 0.2 mi Calm Calm - N/A Fog Fog
2:53 AM 39.9 °F - 39.9 °F 100% 30.35 in 0.2 mi Calm Calm - N/A Fog Fog
3:24 AM 39.0 °F - 39.0 °F 100% 30.35 in 1.0 mi Calm Calm - N/A   Mist
3:31 AM 39.0 °F - 39.0 °F 100% 30.35 in 2.0 mi Calm Calm - N/A   Partly Cloudy
3:50 AM 37.4 °F 33.8 °F 37.4 °F 100% 30.36 in 1.5 mi West 4.6 mph - 0.00 in Snow Light Snow
3:53 AM 37.9 °F 34.4 °F 37.0 °F 97% 30.35 in 2.0 mi West 4.6 mph - 0.00 in Snow Light Snow
4:01 AM 37.9 °F 34.4 °F 37.9 °F 100% 30.36 in 5.0 mi WSW 4.6 mph - 0.00 in   Partly Cloudy
4:15 AM 39.0 °F - 39.0 °F 100% 30.35 in 9.0 mi Calm Calm - 0.00 in   Mostly Cloudy
4:30 AM 39.0 °F - 39.0 °F 100% 30.35 in 10.0 mi Calm Calm - 0.00 in   Scattered Clouds
4:53 AM 39.0 °F - 39.0 °F 100% 30.35 in 10.0 mi Calm Calm - 0.00 in   Clear
5:53 AM 37.9 °F 34.4 °F 37.9 °F 100% 30.34 in 6.0 mi East 4.6 mph - N/A   Clear
6:36 AM 39.0 °F - 39.0 °F 100% 30.34 in 2.5 mi Calm Calm - N/A   Clear
6:43 AM 39.0 °F - 39.0 °F 100% 30.34 in 7.0 mi Calm Calm - N/A   Clear
6:46 AM 39.0 °F - 39.0 °F 100% 30.34 in 1.5 mi Calm Calm - N/A   Clear
6:53 AM 39.0 °F - 39.0 °F 100% 30.35 in 1.0 mi Calm Calm - N/A   Clear
6:57 AM 39.0 °F - 39.0 °F 100% 30.35 in 3.0 mi Calm Calm - N/A   Clear
6:59 AM 37.9 °F - 37.9 °F 100% 30.35 in 1.5 mi Calm Calm - N/A   Clear
7:09 AM 37.9 °F - 37.9 °F 100% 30.36 in 4.0 mi Calm Calm - N/A   Clear
7:20 AM 37.9 °F 35.5 °F 37.9 °F 100% 30.36 in 1.8 mi West 3.5 mph - N/A   Clear
7:27 AM 39.0 °F - 39.0 °F 100% 30.36 in 0.8 mi Calm Calm - N/A   Mist
7:36 AM 39.9 °F - 39.9 °F 100% 30.36 in 0.2 mi Calm Calm - N/A Fog Fog
7:53 AM 41.0 °F - 41.0 °F 100% 30.36 in 0.2 mi Calm Calm - N/A Fog Fog
8:02 AM 42.1 °F - 42.1 °F 100% 30.36 in 1.2 mi Calm Calm - N/A   Mostly Cloudy
8:08 AM 42.1 °F - 42.1 °F 100% 30.36 in 8.0 mi Calm Calm - N/A   Scattered Clouds
8:53 AM 48.9 °F - 46.0 °F 90% 30.37 in 10.0 mi Calm Calm - N/A   Clear
9:53 AM 57.0 °F - 45.0 °F 64% 30.36 in 10.0 mi Calm Calm - N/A   Clear
10:53 AM 60.1 °F - 39.9 °F 47% 30.33 in 10.0 mi Variable 6.9 mph - N/A   Clear
11:53 AM 63.0 °F - 41.0 °F 45% 30.30 in 10.0 mi SSE 9.2 mph - N/A   Clear
12:53 PM 64.9 °F - 39.9 °F 40% 30.26 in 10.0 mi SSW 8.1 mph - N/A   Clear
1:53 PM 64.9 °F - 39.9 °F 40% 30.24 in 10.0 mi SE 9.2 mph - N/A   Clear
2:53 PM 64.9 °F - 39.9 °F 40% 30.22 in 10.0 mi Variable 3.5 mph - N/A   Clear
3:53 PM 63.0 °F - 42.1 °F 46% 30.20 in 10.0 mi SSE 5.8 mph - N/A   Clear
4:53 PM 61.0 °F - 42.1 °F 50% 30.19 in 10.0 mi South 4.6 mph - N/A   Clear
5:53 PM 57.0 °F - 44.1 °F 62% 30.20 in 10.0 mi SSE 3.5 mph - N/A   Clear
6:53 PM 55.9 °F - 42.1 °F 60% 30.20 in 10.0 mi South 4.6 mph - N/A   Clear
7:53 PM 55.0 °F - 43.0 °F 64% 30.19 in 10.0 mi South 3.5 mph - N/A   Clear
8:53 PM 51.1 °F - 44.1 °F 77% 30.18 in 10.0 mi Calm Calm - N/A   Clear
9:53 PM 48.9 °F - 46.0 °F 90% 30.18 in 10.0 mi Calm Calm - N/A   Clear
10:53 PM 50.0 °F - 46.9 °F 89% 30.16 in 10.0 mi Calm Calm - N/A   Clear
11:53 PM 50.0 °F - 48.0 °F 93% 30.15 in 10.0 mi ENE 3.5 mph - N/A   Overcast